Regional Weather Roundup
Issued by NWS San Angelo, TX

Home | Current Version | Previous Version | Text Only | Print | Product List | Glossary On
Versions: 1 2 3 4 5 6 7 8 9 10 11 12 13 14 15 16 17 18 19 20 21 22 23 24 25 26 27 28 29 30 31 32 33 34 35 36 37 38 39 40 41 42 43 44 45 46 47 48 49 50
000
ASUS44 KSJT 250711
RWRSJT
WEST CENTRAL TEXAS REGIONAL WEATHER ROUNDUP
NATIONAL WEATHER SERVICE SAN ANGELO TX
200 AM CDT WED MAY 25 2016

NOTE: "FAIR" INDICATES FEW OR NO CLOUDS BELOW 12,000 FEET WITH NO
SIGNIFICANT WEATHER AND/OR OBSTRUCTIONS TO VISIBILITY.

TXZ049-054-064>066-071>073-076>078-098-099-113-114-127-128-139-140-
154-155-168>170-250800
...LOCATIONS ACROSS WEST CENTRAL TEXAS...

CITY           SKY/WX    TMP DP  RH WIND       PRES   REMARKS
SAN ANGELO     PTCLDY    77  71  82 S20G26    29.92F
ABILENE        CLOUDY    76  72  87 S20G28    29.91S
DYESS AFB      MOCLDY    75  66  73 S24G32    29.88S
JUNCTION       MOCLDY    76  71  85 S3        29.96S HAZE
SWEETWATER     CLOUDY    74  71  88 S20       29.94R
BROWNWOOD      CLOUDY    75  73  94 SE10      29.94S
COLEMAN        CLOUDY    75  72  89 S7        29.94F
SONORA         MOCLDY    77  73  88 S12       30.01F
OZONA          PTSUNNY   75  72  88 S15       29.98F
BRADY          NOT AVBL
$$

TEXAS PANHANDLE/OKLAHOMA PANHANDLE

CITY           SKY/WX    TMP DP  RH WIND       PRES   REMARKS
AMARILLO       CLEAR     54  37  52 SW9       29.88F
BORGER         CLEAR     71  55  56 S15G24    29.84R
CANADIAN       CLEAR     73  71  94 S20G29    29.80S
DALHART        CLEAR     64  30  27 SW14      29.86S
DUMAS          SUNNY     58  33  39 SW9       29.85S
GUYMON         NOT AVBL
HEREFORD       SUNNY     63  32  31 W8        29.91S
PAMPA          SUNNY     70  68  93 S16       29.87S FOG
PERRYTON       CLEAR     72  69  90 S15       29.82S
$$

SOUTHERN PANHANDLE/SOUTH PLAINS/ROLLING PLAINS

CITY           SKY/WX    TMP DP  RH WIND       PRES   REMARKS
LUBBOCK        PTCLDY    74  60  61 S21G26    29.92S
SNYDER           N/A     71  67  87 S9        29.93S
CHILDRESS      CLEAR     74  70  87 S15       29.84S
SEMINOLE       CLOUDY    71  64  78 S10       29.96S
$$

PERMIAN BASIN

CITY           SKY/WX    TMP DP  RH WIND       PRES   REMARKS
MIDLAND        CLOUDY    76  67  73 S15       29.94S
ODESSA         MOCLDY    76  67  73 S17       29.95S
WINK           CLOUDY    76  65  68 MISG      29.91R
$$

FAR WEST/SOUTHWEST MOUNTAINS/TRANS PECOS

CITY           SKY/WX    TMP DP  RH WIND       PRES   REMARKS
ALPINE         CLOUDY    72  48  43 SW6       30.11S
DRYDEN           N/A     77  74  90 E7        29.94S
EL PASO        CLEAR     78  17  10 W23G33    30.00S
FORT STOCKTON  CLOUDY    75  68  78 S17       29.95S
GUADALUPE PASS NOT AVBL
MARFA          CLOUDY    59  38  45 CALM      30.11R
PECOS          CLOUDY    70  27  20 CALM      29.91S
$$

DALLAS/FORT WORTH METROPLEX

CITY           SKY/WX    TMP DP  RH WIND       PRES   REMARKS
DFW AIRPORT    MOCLDY    80  71  74 S18G32    29.91S
FTW MEACHAM      N/A     80  71  74 S22G28    29.90F
DAL-EXECUTIVE  CLOUDY    79  72  79 S10G21    29.93F
GRAND PRAIRIE  MOCLDY    79  71  76 S14       29.94S
ADDISON        MOCLDY    80  74  82 S15G25    29.94S
MESQUITE       CLOUDY    78  73  85 S13G21    29.94F
LANCASTER      CLOUDY    78  70  76 S15G26    29.95F
$$

NORTH CENTRAL TEXAS

CITY           SKY/WX    TMP DP  RH WIND       PRES   REMARKS
SHRMAN/DENISON CLOUDY    75  69  79 S14       29.92R
GAINESVILLE    CLOUDY    77  72  84 S16G23    29.92R
BRIDGEPORT     NOT AVBL
DENTON         LGT RAIN  79  71  76 S15G28    29.91S
WAXAHACHIE     CLOUDY    77  72  86 S14G20    29.95F
GRANBURY       CLOUDY    79  72  77 SE12G17   29.93S
$$

WESTERN NORTH TEXAS

CITY           SKY/WX    TMP DP  RH WIND       PRES   REMARKS
WICHITA FALLS  CLOUDY    75  72  90 S9        29.86F
VERNON         SUNNY     76  69  79 S14       29.86S
BRECKENRIDGE   MOSUNNY   77  73  86 S13G21    29.90S
COMANCHE       CLOUDY    75  74  96 S10G18    29.95S
$$

CENTRAL AND SOUTH CENTRAL TEXAS

CITY           SKY/WX    TMP DP  RH WIND       PRES   REMARKS
AUSTIN/BERGSTM CLOUDY    77  74  90 S7        29.97R
WACO           PTCLDY    76  71  85 S12       29.95S
HILLSBORO      CLOUDY    75  72  89 SE12G17   29.95S
TEMPLE         MOCLDY    75  72  88 S13       29.96F
KILLEEN-GRAY   CLOUDY    75  72  88 SE12      29.96R
FORT HOOD      CLOUDY    74  72  94 S10       29.95S
GEORGETOWN     NOT AVBL
LAGO VISTA     CLOUDY    76  73  90 S7        29.99S
SAN MARCOS     CLOUDY    75  73  94 S7        29.98S
NEW BRAUNFELS  CLOUDY    76  73  91 S6        29.96S
RANDOLPH AFB   MOCLDY    75  75 100 SE8       29.97S
SAN ANTONIO    CLOUDY    77  73  87 SE12      29.97F
STINSON        CLOUDY    78  73  84 SE7       29.95S
PLEASANTON     NOT AVBL
LA GRANGE        N/A     79  76  91 SE7       29.95F
GIDDINGS       CLOUDY    77  73  88 S8        30.01S
$$

EAST TEXAS

CITY           SKY/WX    TMP DP  RH WIND       PRES   REMARKS
PARIS          CLOUDY    77  66  69 SE17      29.95S
CLARKSVILLE    NOT AVBL
TYLER          MOCLDY    78  70  76 S13G20    29.97F
LONGVIEW       CLOUDY    77  71  82 S14       29.98F
PALESTINE      PTSUNNY   77  73  86 SE9       29.99F
NACOGDOCHES    CLOUDY    75  72  88 S8G16     30.01F
$$

TEXAS HILL COUNTRY AND EDWARDS PLATEAU

CITY           SKY/WX    TMP DP  RH WIND       PRES   REMARKS
LLANO          CLOUDY    79  73  83 S5        29.99F
HORSESHOE BAY  CLOUDY    77  72  85 SE7       29.97S
KERRVILLE      CLOUDY    74  73  96 S10G17    29.99S FOG
FREDERICKSBRG  CLOUDY    74  72  91 S6        29.99S
ROCKSPRINGS    CLOUDY    75  73  94 S8        30.02S FOG
HONDO          CLOUDY    77  74  90 SE13      29.97S
UVALDE         CLOUDY    77  75  92 E7        29.96R
DEL RIO        CLOUDY    78  77  96 SE9       29.91F FOG
$$

SOUTHEAST TEXAS

CITY           SKY/WX    TMP DP  RH WIND       PRES   REMARKS
COLLEGE STN    CLOUDY    77  74  90 SE14      29.97F
CALDWELL       CLOUDY    77  75  94 SE10      30.00F
CROCKETT       PTSUNNY   75  73  94 SE10G16   30.02F
BRENHAM        CLOUDY    79  77  94 SE9G17    29.98F
HUNTSVILLE     MOCLDY    78  73  84 VRB5      29.99F
CONROE         CLOUDY    76  74  93 SE8       30.00F
HOUSTON BUSH   MOCLDY    78  75  90 S7        30.00S
HOUSTON HOBBY  MOCLDY    80  76  87 SE8       29.99F
PERLAND        CLOUDY    81  77  88 SE10      30.01S
WHARTON        CLOUDY    77  75  94 E5        29.99F FOG
$$

THE UPPER TEXAS COAST

CITY           SKY/WX    TMP DP  RH WIND       PRES   REMARKS
ORANGE         CLOUDY    79  74  86 SE7       30.04F
PORT ARTHUR    MOCLDY    79  75  87 SE14      30.01F
GALVESTON      CLOUDY    79  78  97 SE13      30.01S
ANGLETON       CLOUDY    81  77  88 SE9       29.99S
BAY CITY       CLOUDY    80  78  92 SE7       29.99S
$$

TEXAS COASTAL BEND, RIO GRANDE PLAINS DEEP SOUTH TEXAS

CITY           SKY/WX    TMP DP  RH WIND       PRES   REMARKS
VICTORIA       CLOUDY    78  76  93 SE7       29.96F FOG
BEEVILLE       CLOUDY    74  74 100 SE6       29.94F
ROCKPORT       CLOUDY    81  76  84 SE10      29.95R
PORT ARANSAS   CLOUDY    80  79  96 SE12G17   29.94R
PORT LAVACA    CLOUDY    79  77  94 SE9       29.97S
CORPUS CHRISTI MOCLDY    80  77  90 SE12      29.94R
KINGSVILLE NAS PTCLDY    80  80 100 SE8       29.92S
COTULLA        CLOUDY    79  75  87 SE9       29.92F
LAREDO         CLOUDY    81  74  79 SE12      29.89F
BROWNSVILLE    CLOUDY    81  78  91 SE13      29.93S
PORT ISABEL    CLOUDY    82  79  90 S16       29.92S
HEBBRONVILLE   CLOUDY    78  76  91 SE9       29.94S
MCALLEN        CLOUDY    83  78  85 SE12      29.93S
WESLACO        CLOUDY    81  76  86 S9        29.92S
FALFURRIAS     MOSUNNY   79  76  90 SE5       29.92S
EDINBURG       CLOUDY    82  77  83 S9        29.92F
$$



USA.gov is the U.S. government's official web portal to all federal, state and local government web resources and services.